"FRM_AIS_EDR_2045.DAT           ",2005-08-18T08:29:00.41 ,"1/0072433735.17923",    0,    0,  200445,"AIS","B1","B1","B0","B0","PISd",0,0,0,0,"B1", 0,15,   0, 0,    0,"AIS","N/A    ","OK ","OK ",    001176.087,    -062.429,    0059.528,    0014.959,    0047.568
"FRM_AIS_EDR_2045.DAT           ",2005-08-18T08:29:07.95 ,"1/0072433742.53522",    0,    1,  200445,"AIS","B1","B1","B0","B0","PISd",0,0,0,0,"B1", 0,15,   0, 0,    0,"AIS","N/A    ","OK ","OK ",    001165.700,    -062.104,    0059.587,    0014.965,    0047.438
"FRM_AIS_EDR_2045.DAT           ",2005-08-18T08:29:15.49 ,"1/0072433750.23585",    0,    2,  200445,"AIS","B1","B1","B0","B0","PISd",0,0,0,0,"B1", 0,15,   0, 0,    0,"AIS","N/A    ","OK ","OK ",    001155.345,    -061.776,    0059.644,    0014.971,    0047.309
"FRM_AIS_EDR_2045.DAT           ",2005-08-18T08:29:23.04 ,"1/0072433757.59185",    0,    3,  200445,"AIS","B1","B1","B0","B0","PISd",0,0,0,0,"B1", 0,15,   0, 0,    0,"AIS","N/A    ","OK ","OK ",    001145.022,    -061.447,    0059.699,    0014.977,    0047.180
"FRM_AIS_EDR_2045.DAT           ",2005-08-18T08:29:30.58 ,"1/0072433765.29248",    0,    4,  200445,"AIS","B1","B1","B0","B0","PISd",0,0,0,0,"B1", 0,15,   0, 0,    0,"AIS","N/A    ","OK ","OK ",    001134.731,    -061.117,    0059.754,    0014.982,    0047.052
"FRM_AIS_EDR_2045.DAT           ",2005-08-18T08:29:38.12 ,"1/0072433772.64847",    0,    5,  200445,"AIS","B1","B1","B0","B0","PISd",0,0,0,0,"B1", 0,15,   0, 0,    0,"AIS","N/A    ","OK ","OK ",    001124.472,    -060.785,    0059.806,    0014.988,    0046.926
"FRM_AIS_EDR_2045.DAT           ",2005-08-18T08:29:45.66 ,"1/0072433780.34911",    0,    6,  200445,"AIS","B1","B1","B0","B0","PISd",0,0,0,0,"B1", 0,15,   0, 0,    0,"AIS","N/A    ","OK ","OK ",    001114.247,    -060.452,    0059.858,    0014.993,    0046.800
"FRM_AIS_EDR_2045.DAT           ",2005-08-18T08:29:53.21 ,"1/0072433788.04974",    0,    7,  200445,"AIS","B1","B1","B0","B0","PISd",0,0,0,0,"B1", 0,15,   0, 0,    0,"AIS","N/A    ","OK ","OK ",    001104.055,    -060.117,    0059.908,    0014.999,    0046.675
"FRM_AIS_EDR_2045.DAT           ",2005-08-18T08:30:00.75 ,"1/0072433795.40573",    0,    8,  200445,"AIS","B1","B1","B0","B0","PISd",0,0,0,0,"B1", 0,15,   0, 0,    0,"AIS","N/A    ","OK ","OK ",    001093.898,    -059.780,    0059.957,    0015.004,    0046.552
"FRM_AIS_EDR_2045.DAT           ",2005-08-18T08:30:08.29 ,"1/0072433803.10637",    0,    9,  200445,"AIS","B1","B1","B0","B0","PISd",0,0,0,0,"B1", 0,15,   0, 0,    0,"AIS","N/A    ","OK ","OK ",    001083.775,    -059.442,    0060.004,    0015.009,    0046.429
"FRM_AIS_EDR_2045.DAT           ",2005-08-18T08:30:15.84 ,"1/0072433810.46236",    0,   10,  200445,"AIS","B1","B1","B0","B0","PISd",0,0,0,0,"B1", 0,15,   0, 0,    0,"AIS","N/A    ","OK ","OK ",    001073.687,    -059.102,    0060.051,    0015.014,    0046.308
"FRM_AIS_EDR_2045.DAT           ",2005-08-18T08:30:23.38 ,"1/0072433818.16299",    0,   11,  200445,"AIS","B1","B1","B0","B0","PISd",0,0,0,0,"B1", 0,15,   0, 0,    0,"AIS","N/A    ","OK ","OK ",    001063.635,    -058.761,    0060.096,    0015.019,    0046.187
"FRM_AIS_EDR_2045.DAT           ",2005-08-18T08:30:30.92 ,"1/0072433825.51899",    0,   12,  200445,"AIS","B1","B1","B0","B0","PISd",0,0,0,0,"B1", 0,15,   0, 0,    0,"AIS","N/A    ","OK ","OK ",    001053.620,    -058.418,    0060.140,    0015.024,    0046.068
"FRM_AIS_EDR_2045.DAT           ",2005-08-18T08:30:38.47 ,"1/0072433833.21962",    0,   13,  200445,"AIS","B1","B1","B0","B0","PISd",0,0,0,0,"B1", 0,15,   0, 0,    0,"AIS","N/A    ","OK ","OK ",    001043.641,    -058.074,    0060.183,    0015.029,    0045.950
"FRM_AIS_EDR_2045.DAT           ",2005-08-18T08:30:46.01 ,"1/0072433840.57561",    0,   14,  200445,"AIS","B1","B1","B0","B0","PISd",0,0,0,0,"B1", 0,15,   0, 0,    0,"AIS","N/A    ","OK ","OK ",    001033.700,    -057.728,    0060.225,    0015.034,    0045.833
"FRM_AIS_EDR_2045.DAT           ",2005-08-18T08:30:53.55 ,"1/0072433848.27625",    0,   15,  200445,"AIS","B1","B1","B0","B0","PISd",0,0,0,0,"B1", 0,15,   0, 0,    0,"AIS","N/A    ","OK ","OK ",    001023.796,    -057.380,    0060.266,    0015.039,    0045.718
"FRM_AIS_EDR_2045.DAT           ",2005-08-18T08:31:01.10 ,"1/0072433855.63224",    0,   16,  200445,"AIS","B1","B1","B0","B0","PISd",0,0,0,0,"B1", 0,15,   0, 0,    0,"AIS","N/A    ","OK ","OK ",    001013.931,    -057.031,    0060.305,    0015.044,    0045.604
"FRM_AIS_EDR_2045.DAT           ",2005-08-18T08:31:08.64 ,"1/0072433863.33287",    0,   17,  200445,"AIS","B1","B1","B0","B0","PISd",0,0,0,0,"B1", 0,15,   0, 0,    0,"AIS","N/A    ","OK ","OK ",    001004.105,    -056.680,    0060.344,    0015.048,    0045.491
"FRM_AIS_EDR_2045.DAT           ",2005-08-18T08:31:16.18 ,"1/0072433871.03351",    0,   18,  200445,"AIS","B1","B1","B0","B0","PISd",0,0,0,0,"B1", 0,15,   0, 0,    0,"AIS","N/A    ","OK ","OK ",    000994.319,    -056.328,    0060.382,    0015.053,    0045.379
"FRM_AIS_EDR_2045.DAT           ",2005-08-18T08:31:23.73 ,"1/0072433878.38950",    0,   19,  200445,"AIS","B1","B1","B0","B0","PISd",0,0,0,0,"B1", 0,15,   0, 0,    0,"AIS","N/A    ","OK ","OK ",    000984.572,    -055.974,    0060.419,    0015.057,    0045.269
"FRM_AIS_EDR_2045.DAT           ",2005-08-18T08:31:31.27 ,"1/0072433886.09013",    0,   20,  200445,"AIS","B1","B1","B0","B0","PISd",0,0,0,0,"B1", 0,15,   0, 0,    0,"AIS","N/A    ","OK ","OK ",    000974.867,    -055.618,    0060.455,    0015.062,    0045.161
"FRM_AIS_EDR_2045.DAT           ",2005-08-18T08:31:38.81 ,"1/0072433893.44612",    0,   21,  200445,"AIS","B1","B1","B0","B0","PISd",0,0,0,0,"B1", 0,15,   0, 0,    0,"AIS","N/A    ","OK ","OK ",    000965.202,    -055.261,    0060.490,    0015.066,    0045.054
"FRM_AIS_EDR_2045.DAT           ",2005-08-18T08:31:46.36 ,"1/0072433901.14676",    0,   22,  200445,"AIS","B1","B1","B0","B0","PISd",0,0,0,0,"B1", 0,15,   0, 0,    0,"AIS","N/A    ","OK ","OK ",    000955.579,    -054.902,    0060.524,    0015.070,    0044.948
"FRM_AIS_EDR_2045.DAT           ",2005-08-18T08:31:53.90 ,"1/0072433908.50275",    0,   23,  200445,"AIS","B1","B1","B0","B0","PISd",0,0,0,0,"B1", 0,15,   0, 0,    0,"AIS","N/A    ","OK ","OK ",    000945.999,    -054.542,    0060.557,    0015.075,    0044.845
"FRM_AIS_EDR_2045.DAT           ",2005-08-18T08:32:01.44 ,"1/0072433916.20338",    0,   24,  200445,"AIS","B1","B1","B0","B0","PISd",0,0,0,0,"B1", 0,15,   0, 0,    0,"AIS","N/A    ","OK ","OK ",    000936.462,    -054.180,    0060.589,    0015.079,    0044.743
"FRM_AIS_EDR_2045.DAT           ",2005-08-18T08:32:08.99 ,"1/0072433923.55938",    0,   25,  200445,"AIS","B1","B1","B0","B0","PISd",0,0,0,0,"B1", 0,15,   0, 0,    0,"AIS","N/A    ","OK ","OK ",    000926.968,    -053.816,    0060.621,    0015.083,    0044.642
"FRM_AIS_EDR_2045.DAT           ",2005-08-18T08:32:16.53 ,"1/0072433931.26001",    0,   26,  200445,"AIS","B1","B1","B0","B0","PISd",0,0,0,0,"B1", 0,15,   0, 0,    0,"AIS","N/A    ","OK ","OK ",    000917.518,    -053.451,    0060.652,    0015.087,    0044.543
"FRM_AIS_EDR_2045.DAT           ",2005-08-18T08:32:24.07 ,"1/0072433938.61600",    0,   27,  200445,"AIS","B1","B1","B0","B0","PISd",0,0,0,0,"B1", 0,15,   0, 0,    0,"AIS","N/A    ","OK ","OK ",    000908.113,    -053.084,    0060.682,    0015.091,    0044.446
"FRM_AIS_EDR_2045.DAT           ",2005-08-18T08:32:31.62 ,"1/0072433946.31664",    0,   28,  200445,"AIS","B1","B1","B0","B0","PISd",0,0,0,0,"B1", 0,15,   0, 0,    0,"AIS","N/A    ","OK ","OK ",    000898.753,    -052.715,    0060.711,    0015.095,    0044.351
"FRM_AIS_EDR_2045.DAT           ",2005-08-18T08:32:39.16 ,"1/0072433954.01727",    0,   29,  200445,"AIS","B1","B1","B0","B0","PISd",0,0,0,0,"B1", 0,15,   0, 0,    0,"AIS","N/A    ","OK ","OK ",    000889.440,    -052.345,    0060.739,    0015.099,    0044.258
"FRM_AIS_EDR_2045.DAT           ",2005-08-18T08:32:46.70 ,"1/0072433961.37326",    0,   30,  200445,"AIS","B1","B1","B0","B0","PISd",0,0,0,0,"B1", 0,15,   0, 0,    0,"AIS","N/A    ","OK ","OK ",    000880.172,    -051.973,    0060.767,    0015.103,    0044.166
"FRM_AIS_EDR_2045.DAT           ",2005-08-18T08:32:54.24 ,"1/0072433969.07390",    0,   31,  200445,"AIS","B1","B1","B0","B0","PISd",0,0,0,0,"B1", 0,15,   0, 0,    0,"AIS","N/A    ","OK ","OK ",    000870.952,    -051.600,    0060.794,    0015.107,    0044.077
"FRM_AIS_EDR_2045.DAT           ",2005-08-18T08:33:01.79 ,"1/0072433976.42989",    0,   32,  200445,"AIS","B1","B1","B0","B0","PISd",0,0,0,0,"B1", 0,15,   0, 0,    0,"AIS","N/A    ","OK ","OK ",    000861.780,    -051.225,    0060.820,    0015.111,    0043.990
"FRM_AIS_EDR_2045.DAT           ",2005-08-18T08:33:09.33 ,"1/0072433984.13052",    0,   33,  200445,"AIS","B1","B1","B0","B0","PISd",0,0,0,0,"B1", 0,15,   0, 0,    0,"AIS","N/A    ","OK ","OK ",    000852.656,    -050.848,    0060.846,    0015.114,    0043.904
"FRM_AIS_EDR_2045.DAT           ",2005-08-18T08:33:16.87 ,"1/0072433991.48652",    0,   34,  200445,"AIS","B1","B1","B0","B0","PISd",0,0,0,0,"B1", 0,15,   0, 0,    0,"AIS","N/A    ","OK ","OK ",    000843.581,    -050.470,    0060.871,    0015.118,    0043.821
"FRM_AIS_EDR_2045.DAT           ",2005-08-18T08:33:24.42 ,"1/0072433999.18715",    0,   35,  200445,"AIS","B1","B1","B0","B0","PISd",0,0,0,0,"B1", 0,15,   0, 0,    0,"AIS","N/A    ","OK ","OK ",    000834.555,    -050.090,    0060.895,    0015.122,    0043.740
"FRM_AIS_EDR_2045.DAT           ",2005-08-18T08:33:31.96 ,"1/0072434006.54314",    0,   36,  200445,"AIS","B1","B1","B0","B0","PISd",0,0,0,0,"B1", 0,15,   0, 0,    0,"AIS","N/A    ","OK ","OK ",    000825.580,    -049.709,    0060.919,    0015.125,    0043.661
"FRM_AIS_EDR_2045.DAT           ",2005-08-18T08:33:39.50 ,"1/0072434014.24378",    0,   37,  200445,"AIS","B1","B1","B0","B0","PISd",0,0,0,0,"B1", 0,15,   0, 0,    0,"AIS","N/A    ","OK ","OK ",    000816.655,    -049.326,    0060.942,    0015.129,    0043.584
"FRM_AIS_EDR_2045.DAT           ",2005-08-18T08:33:47.05 ,"1/0072434021.59977",    0,   38,  200445,"AIS","B1","B1","B0","B0","PISd",0,0,0,0,"B1", 0,15,   0, 0,    0,"AIS","N/A    ","OK ","OK ",    000807.782,    -048.941,    0060.964,    0015.132,    0043.510
"FRM_AIS_EDR_2045.DAT           ",2005-08-18T08:33:54.59 ,"1/0072434029.30040",    0,   39,  200445,"AIS","B1","B1","B0","B0","PISd",0,0,0,0,"B1", 0,15,   0, 0,    0,"AIS","N/A    ","OK ","OK ",    000798.962,    -048.555,    0060.986,    0015.136,    0043.438
"FRM_AIS_EDR_2045.DAT           ",2005-08-18T08:34:02.13 ,"1/0072434037.00104",    0,   40,  200445,"AIS","B1","B1","B0","B0","PISd",0,0,0,0,"B1", 0,15,   0, 0,    0,"AIS","N/A    ","OK ","OK ",    000790.194,    -048.167,    0061.007,    0015.139,    0043.368
"FRM_AIS_EDR_2045.DAT           ",2005-08-18T08:34:09.68 ,"1/0072434044.35703",    0,   41,  200445,"AIS","B1","B1","B0","B0","PISd",0,0,0,0,"B1", 0,15,   0, 0,    0,"AIS","N/A    ","OK ","OK ",    000781.479,    -047.777,    0061.028,    0015.143,    0043.300
"FRM_AIS_EDR_2045.DAT           ",2005-08-18T08:34:17.22 ,"1/0072434052.05766",    0,   42,  200445,"AIS","B1","B1","B0","B0","PISd",0,0,0,0,"B1", 0,15,   0, 0,    0,"AIS","N/A    ","OK ","OK ",    000772.818,    -047.386,    0061.048,    0015.146,    0043.236
"FRM_AIS_EDR_2045.DAT           ",2005-08-18T08:34:24.76 ,"1/0072434059.41366",    0,   43,  200445,"AIS","B1","B1","B0","B0","PISd",0,0,0,0,"B1", 0,15,   0, 0,    0,"AIS","N/A    ","OK ","OK ",    000764.212,    -046.993,    0061.068,    0015.149,    0043.173
"FRM_AIS_EDR_2045.DAT           ",2005-08-18T08:34:32.31 ,"1/0072434067.11429",    0,   44,  200445,"AIS","B1","B1","B0","B0","PISd",0,0,0,0,"B1", 0,15,   0, 0,    0,"AIS","N/A    ","OK ","OK ",    000755.662,    -046.598,    0061.087,    0015.153,    0043.114
"FRM_AIS_EDR_2045.DAT           ",2005-08-18T08:34:39.85 ,"1/0072434074.47028",    0,   45,  200445,"AIS","B1","B1","B0","B0","PISd",0,0,0,0,"B1", 0,15,   0, 0,    0,"AIS","N/A    ","OK ","OK ",    000747.167,    -046.202,    0061.105,    0015.156,    0043.056
"FRM_AIS_EDR_2045.DAT           ",2005-08-18T08:34:47.39 ,"1/0072434082.17092",    0,   46,  200445,"AIS","B1","B1","B0","B0","PISd",0,0,0,0,"B1", 0,15,   0, 0,    0,"AIS","N/A    ","OK ","OK ",    000738.729,    -045.804,    0061.123,    0015.159,    0043.002
"FRM_AIS_EDR_2045.DAT           ",2005-08-18T08:34:54.94 ,"1/0072434089.52691",    0,   47,  200445,"AIS","B1","B1","B0","B0","PISd",0,0,0,0,"B1", 0,15,   0, 0,    0,"AIS","N/A    ","OK ","OK ",    000730.349,    -045.405,    0061.141,    0015.162,    0042.950
"FRM_AIS_EDR_2045.DAT           ",2005-08-18T08:35:02.48 ,"1/0072434097.22754",    0,   48,  200445,"AIS","B1","B1","B0","B0","PISd",0,0,0,0,"B1", 0,15,   0, 0,    0,"AIS","N/A    ","OK ","OK ",    000722.026,    -045.004,    0061.158,    0015.166,    0042.901
"FRM_AIS_EDR_2045.DAT           ",2005-08-18T08:35:10.02 ,"1/0072434104.58354",    0,   49,  200445,"AIS","B1","B1","B0","B0","PISd",0,0,0,0,"B1", 0,15,   0, 0,    0,"AIS","N/A    ","OK ","OK ",    000713.762,    -044.601,    0061.174,    0015.169,    0042.855
"FRM_AIS_EDR_2045.DAT           ",2005-08-18T08:35:17.57 ,"1/0072434112.28417",    0,   50,  200445,"AIS","B1","B1","B0","B0","PISd",0,0,0,0,"B1", 0,15,   0, 0,    0,"AIS","N/A    ","OK ","OK ",    000705.557,    -044.197,    0061.190,    0015.172,    0042.812
"FRM_AIS_EDR_2045.DAT           ",2005-08-18T08:35:25.11 ,"1/0072434119.64016",    0,   51,  200445,"AIS","B1","B1","B0","B0","PISd",0,0,0,0,"B1", 0,15,   0, 0,    0,"AIS","N/A    ","OK ","OK ",    000697.413,    -043.791,    0061.206,    0015.175,    0042.771
"FRM_AIS_EDR_2045.DAT           ",2005-08-18T08:35:32.65 ,"1/0072434127.34080",    0,   52,  200445,"AIS","B1","B1","B0","B0","PISd",0,0,0,0,"B1", 0,15,   0, 0,    0,"AIS","N/A    ","OK ","OK ",    000689.328,    -043.384,    0061.221,    0015.178,    0042.734
"FRM_AIS_EDR_2045.DAT           ",2005-08-18T08:35:40.20 ,"1/0072434135.04143",    0,   53,  200445,"AIS","B1","B1","B0","B0","PISd",0,0,0,0,"B1", 0,15,   0, 0,    0,"AIS","N/A    ","OK ","OK ",    000681.306,    -042.974,    0061.236,    0015.181,    0042.699
"FRM_AIS_EDR_2045.DAT           ",2005-08-18T08:35:47.74 ,"1/0072434142.39742",    0,   54,  200445,"AIS","B1","B1","B0","B0","PISd",0,0,0,0,"B1", 0,15,   0, 0,    0,"AIS","N/A    ","OK ","OK ",    000673.345,    -042.564,    0061.250,    0015.184,    0042.668
"FRM_AIS_EDR_2045.DAT           ",2005-08-18T08:35:55.28 ,"1/0072434150.09806",    0,   55,  200445,"AIS","B1","B1","B0","B0","PISd",0,0,0,0,"B1", 0,15,   0, 0,    0,"AIS","N/A    ","OK ","OK ",    000665.447,    -042.151,    0061.264,    0015.187,    0042.640
"FRM_AIS_EDR_2045.DAT           ",2005-08-18T08:36:02.82 ,"1/0072434157.45405",    0,   56,  200445,"AIS","B1","B1","B0","B0","PISd",0,0,0,0,"B1", 0,15,   0, 0,    0,"AIS","N/A    ","OK ","OK ",    000657.612,    -041.738,    0061.278,    0015.190,    0042.615
"FRM_AIS_EDR_2045.DAT           ",2005-08-18T08:36:10.37 ,"1/0072434165.15468",    0,   57,  200445,"AIS","B1","B1","B0","B0","PISd",0,0,0,0,"B1", 0,15,   0, 0,    0,"AIS","N/A    ","OK ","OK ",    000649.842,    -041.322,    0061.291,    0015.193,    0042.593
"FRM_AIS_EDR_2045.DAT           ",2005-08-18T08:36:17.91 ,"1/0072434172.51068",    0,   58,  200445,"AIS","B1","B1","B0","B0","PISd",0,0,0,0,"B1", 0,15,   0, 0,    0,"AIS","N/A    ","OK ","OK ",    000642.136,    -040.905,    0061.303,    0015.196,    0042.574
"FRM_AIS_EDR_2045.DAT           ",2005-08-18T08:36:25.45 ,"1/0072434180.21131",    0,   59,  200445,"AIS","B1","B1","B0","B0","PISd",0,0,0,0,"B1", 0,15,   0, 0,    0,"AIS","N/A    ","OK ","OK ",    000634.495,    -040.486,    0061.316,    0015.199,    0042.558
"FRM_AIS_EDR_2045.DAT           ",2005-08-18T08:36:33.00 ,"1/0072434187.56730",    0,   60,  200445,"AIS","B1","B1","B0","B0","PISd",0,0,0,0,"B1", 0,15,   0, 0,    0,"AIS","N/A    ","OK ","OK ",    000626.921,    -040.066,    0061.328,    0015.201,    0042.546
"FRM_AIS_EDR_2045.DAT           ",2005-08-18T08:36:40.54 ,"1/0072434195.26793",    0,   61,  200445,"AIS","B1","B1","B0","B0","PISd",0,0,0,0,"B1", 0,15,   0, 0,    0,"AIS","N/A    ","OK ","OK ",    000619.413,    -039.644,    0061.339,    0015.204,    0042.537
"FRM_AIS_EDR_2045.DAT           ",2005-08-18T08:36:48.08 ,"1/0072434202.62393",    0,   62,  200445,"AIS","B1","B1","B0","B0","PISd",0,0,0,0,"B1", 0,15,   0, 0,    0,"AIS","N/A    ","OK ","OK ",    000611.973,    -039.221,    0061.350,    0015.207,    0042.532
"FRM_AIS_EDR_2045.DAT           ",2005-08-18T08:36:55.63 ,"1/0072434210.32456",    0,   63,  200445,"AIS","B1","B1","B0","B0","PISd",0,0,0,0,"B1", 0,15,   0, 0,    0,"AIS","N/A    ","OK ","OK ",    000604.600,    -038.796,    0061.361,    0015.210,    0042.530
"FRM_AIS_EDR_2045.DAT           ",2005-08-18T08:37:03.17 ,"1/0072434218.02519",    0,   64,  200445,"AIS","B1","B1","B0","B0","PISd",0,0,0,0,"B1", 0,15,   0, 0,    0,"AIS","N/A    ","OK ","OK ",    000597.297,    -038.370,    0061.372,    0015.213,    0042.532
"FRM_AIS_EDR_2045.DAT           ",2005-08-18T08:37:10.71 ,"1/0072434225.38119",    0,   65,  200445,"AIS","B1","B1","B0","B0","PISd",0,0,0,0,"B1", 0,15,   0, 0,    0,"AIS","N/A    ","OK ","OK ",    000590.063,    -037.942,    0061.382,    0015.215,    0042.537
"FRM_AIS_EDR_2045.DAT           ",2005-08-18T08:37:18.26 ,"1/0072434233.08182",    0,   66,  200445,"AIS","B1","B1","B0","B0","PISd",0,0,0,0,"B1", 0,15,   0, 0,    0,"AIS","N/A    ","OK ","OK ",    000582.900,    -037.512,    0061.392,    0015.218,    0042.545
"FRM_AIS_EDR_2045.DAT           ",2005-08-18T08:37:25.80 ,"1/0072434240.43781",    0,   67,  200445,"AIS","B1","B1","B0","B0","PISd",0,0,0,0,"B1", 0,15,   0, 0,    0,"AIS","N/A    ","OK ","OK ",    000575.807,    -037.081,    0061.401,    0015.221,    0042.558
"FRM_AIS_EDR_2045.DAT           ",2005-08-18T08:37:33.34 ,"1/0072434248.13845",    0,   68,  200445,"AIS","B1","B1","B0","B0","PISd",0,0,0,0,"B1", 0,15,   0, 0,    0,"AIS","N/A    ","OK ","OK ",    000568.786,    -036.648,    0061.411,    0015.223,    0042.573
"FRM_AIS_EDR_2045.DAT           ",2005-08-18T08:37:40.89 ,"1/0072434255.49444",    0,   69,  200445,"AIS","B1","B1","B0","B0","PISd",0,0,0,0,"B1", 0,15,   0, 0,    0,"AIS","N/A    ","OK ","OK ",    000561.837,    -036.214,    0061.419,    0015.226,    0042.593
"FRM_AIS_EDR_2045.DAT           ",2005-08-18T08:37:48.43 ,"1/0072434263.19507",    0,   70,  200445,"AIS","B1","B1","B0","B0","PISd",0,0,0,0,"B1", 0,15,   0, 0,    0,"AIS","N/A    ","OK ","OK ",    000554.961,    -035.778,    0061.428,    0015.228,    0042.616
"FRM_AIS_EDR_2045.DAT           ",2005-08-18T08:37:55.97 ,"1/0072434270.55107",    0,   71,  200445,"AIS","B1","B1","B0","B0","PISd",0,0,0,0,"B1", 0,15,   0, 0,    0,"AIS","N/A    ","OK ","OK ",    000548.158,    -035.341,    0061.436,    0015.231,    0042.643
"FRM_AIS_EDR_2045.DAT           ",2005-08-18T08:38:03.52 ,"1/0072434278.25170",    0,   72,  200445,"AIS","B1","B1","B0","B0","PISd",0,0,0,0,"B1", 0,15,   0, 0,    0,"AIS","N/A    ","OK ","OK ",    000541.430,    -034.903,    0061.444,    0015.234,    0042.674
"FRM_AIS_EDR_2045.DAT           ",2005-08-18T08:38:11.06 ,"1/0072434285.60769",    0,   73,  200445,"AIS","B1","B1","B0","B0","PISd",0,0,0,0,"B1", 0,15,   0, 0,    0,"AIS","N/A    ","OK ","OK ",    000534.777,    -034.463,    0061.452,    0015.236,    0042.708
"FRM_AIS_EDR_2045.DAT           ",2005-08-18T08:38:18.60 ,"1/0072434293.30833",    0,   74,  200445,"AIS","B1","B1","B0","B0","PISd",0,0,0,0,"B1", 0,15,   0, 0,    0,"AIS","N/A    ","OK ","OK ",    000528.199,    -034.021,    0061.459,    0015.239,    0042.747
"FRM_AIS_EDR_2045.DAT           ",2005-08-18T08:38:26.15 ,"1/0072434301.00896",    0,   75,  200445,"AIS","B1","B1","B0","B0","PISd",0,0,0,0,"B1", 0,15,   0, 0,    0,"AIS","N/A    ","OK ","OK ",    000521.698,    -033.578,    0061.467,    0015.241,    0042.789
"FRM_AIS_EDR_2045.DAT           ",2005-08-18T08:38:33.69 ,"1/0072434308.36495",    0,   76,  200445,"AIS","B1","B1","B0","B0","PISd",0,0,0,0,"B1", 0,15,   0, 0,    0,"AIS","N/A    ","OK ","OK ",    000515.274,    -033.133,    0061.474,    0015.244,    0042.835
"FRM_AIS_EDR_2045.DAT           ",2005-08-18T08:38:41.23 ,"1/0072434316.06559",    0,   77,  200445,"AIS","B1","B1","B0","B0","PISd",0,0,0,0,"B1", 0,15,   0, 0,    0,"AIS","N/A    ","OK ","OK ",    000508.927,    -032.688,    0061.480,    0015.246,    0042.885
"FRM_AIS_EDR_2045.DAT           ",2005-08-18T08:38:48.78 ,"1/0072434323.42158",    0,   78,  200445,"AIS","B1","B1","B0","B0","PISd",0,0,0,0,"B1", 0,15,   0, 0,    0,"AIS","N/A    ","OK ","OK ",    000502.659,    -032.240,    0061.487,    0015.249,    0042.939
"FRM_AIS_EDR_2045.DAT           ",2005-08-18T08:38:56.32 ,"1/0072434331.12221",    0,   79,  200445,"AIS","B1","B1","B0","B0","PISd",0,0,0,0,"B1", 0,15,   0, 0,    0,"AIS","N/A    ","OK ","OK ",    000496.470,    -031.791,    0061.493,    0015.251,    0042.997
"FRM_AIS_EDR_2045.DAT           ",2005-08-18T08:39:03.86 ,"1/0072434338.47821",    0,   80,  200445,"AIS","B1","B1","B0","B0","PISd",0,0,0,0,"B1", 0,15,   0, 0,    0,"AIS","N/A    ","OK ","OK ",    000490.360,    -031.341,    0061.499,    0015.254,    0043.059
"FRM_AIS_EDR_2045.DAT           ",2005-08-18T08:39:11.40 ,"1/0072434346.17884",    0,   81,  200445,"AIS","B1","B1","B0","B0","PISd",0,0,0,0,"B1", 0,15,   0, 0,    0,"AIS","N/A    ","OK ","OK ",    000484.331,    -030.890,    0061.504,    0015.256,    0043.124
"FRM_AIS_EDR_2045.DAT           ",2005-08-18T08:39:18.95 ,"1/0072434353.53483",    0,   82,  200445,"AIS","B1","B1","B0","B0","PISd",0,0,0,0,"B1", 0,15,   0, 0,    0,"AIS","N/A    ","OK ","OK ",    000478.382,    -030.437,    0061.510,    0015.258,    0043.194
"FRM_AIS_EDR_2045.DAT           ",2005-08-18T08:39:26.49 ,"1/0072434361.23547",    0,   83,  200445,"AIS","B1","B1","B0","B0","PISd",0,0,0,0,"B1", 0,15,   0, 0,    0,"AIS","N/A    ","OK ","OK ",    000472.516,    -029.982,    0061.515,    0015.261,    0043.268
"FRM_AIS_EDR_2045.DAT           ",2005-08-18T08:39:34.03 ,"1/0072434368.59146",    0,   84,  200445,"AIS","B1","B1","B0","B0","PISd",0,0,0,0,"B1", 0,15,   0, 0,    0,"AIS","N/A    ","OK ","OK ",    000466.731,    -029.527,    0061.520,    0015.263,    0043.346
"FRM_AIS_EDR_2045.DAT           ",2005-08-18T08:39:41.58 ,"1/0072434376.29209",    0,   85,  200445,"AIS","B1","B1","B0","B0","PISd",0,0,0,0,"B1", 0,15,   0, 0,    0,"AIS","N/A    ","OK ","OK ",    000461.030,    -029.070,    0061.525,    0015.266,    0043.428
"FRM_AIS_EDR_2045.DAT           ",2005-08-18T08:39:49.12 ,"1/0072434383.64809",    0,   86,  200445,"AIS","B1","B1","B0","B0","PISd",0,0,0,0,"B1", 0,15,   0, 0,    0,"AIS","N/A    ","OK ","OK ",    000455.412,    -028.611,    0061.529,    0015.268,    0043.514
"FRM_AIS_EDR_2045.DAT           ",2005-08-18T08:39:56.66 ,"1/0072434391.34872",    0,   87,  200445,"AIS","B1","B1","B0","B0","PISd",0,0,0,0,"B1", 0,15,   0, 0,    0,"AIS","N/A    ","OK ","OK ",    000449.878,    -028.152,    0061.534,    0015.270,    0043.604
"FRM_AIS_EDR_2045.DAT           ",2005-08-18T08:40:04.21 ,"1/0072434399.04935",    0,   88,  200445,"AIS","B1","B1","B0","B0","PISd",0,0,0,0,"B1", 0,15,   0, 0,    0,"AIS","N/A    ","OK ","OK ",    000444.429,    -027.691,    0061.538,    0015.273,    0043.698
"FRM_AIS_EDR_2045.DAT           ",2005-08-18T08:40:11.75 ,"1/0072434406.40535",    0,   89,  200445,"AIS","B1","B1","B0","B0","PISd",0,0,0,0,"B1", 0,15,   0, 0,    0,"AIS","N/A    ","OK ","OK ",    000439.066,    -027.228,    0061.542,    0015.275,    0043.796
"FRM_AIS_EDR_2045.DAT           ",2005-08-18T08:40:19.29 ,"1/0072434414.10598",    0,   90,  200445,"AIS","B1","B1","B0","B0","PISd",0,0,0,0,"B1", 0,15,   0, 0,    0,"AIS","N/A    ","OK ","OK ",    000433.789,    -026.765,    0061.545,    0015.277,    0043.898